When you browse on this site, cookies collect data to enhance your experience and personalize the content and advertising you see.
Visit our Privacy Policy to learn more. By continuing to use the site, you agree to this use of cookies and data.
  • In Deutschland
  • Länderverzeichnis
  • Für 7 Tage
  • Wassertemperatur
  • Satellitenkarten
  • Wetterkarte
  • Widgets
  • user-avatar
    Anmelden

    Stündliche Wetter Gribovo

    Heute, 19 Februar, Dienstag

    Zeit Temperatur Niederschläge Wind Luftdruck Luftfeuchtigkeit
    00:00 -9°C° 0 mm 2 m/S 746 mmHg 91%
    01:00 -9°C° 0 mm 2 m/S 746 mmHg 91%
    02:00 -9°C° 0 mm 2 m/S 745 mmHg 92%
    03:00 -8°C° 0 mm 2 m/S 744 mmHg 90%
    04:00 -9°C° 0 mm 3 m/S 744 mmHg 89%
    05:00 -9°C° 0 mm 3 m/S 743 mmHg 87%
    06:00 -9°C° 0 mm 4 m/S 743 mmHg 85%
    07:00 -9°C° 0 mm 4 m/S 743 mmHg 82%
    08:00 -10°C° 0 mm 5 m/S 742 mmHg 80%
    09:00 -7°C° 0 mm 5 m/S 742 mmHg 78%
    10:00 -5°C° 0 mm 5 m/S 741 mmHg 76%
    11:00 -4°C° 0 mm 5 m/S 741 mmHg 74%
    12:00 -2°C° 0 mm 5 m/S 740 mmHg 75%
    13:00 -2°C° 0 mm 5 m/S 740 mmHg 76%
    14:00 +1°C° 0 mm 3 m/S 739 mmHg 81%
    15:00 -1°C° 0 mm 4 m/S 739 mmHg 81%
    16:00 -2°C° 0 mm 4 m/S 738 mmHg 81%
    17:00 -3°C° 0 mm 4 m/S 737 mmHg 82%
    18:00 -4°C° 0 mm 5 m/S 737 mmHg 84%
    19:00 -4°C° 0 mm 5 m/S 736 mmHg 87%
    20:00 -4°C° 0 mm 5 m/S 735 mmHg 90%
    21:00 -2°C° 0 mm 5 m/S 735 mmHg 90%
    22:00 -1°C° 0 mm 5 m/S 734 mmHg 91%
    23:00 -1°C° 0 mm 5 m/S 733 mmHg 91%

    Morgen, 20 Februar, Mittwoch

    Zeit Temperatur Niederschläge Wind Luftdruck Luftfeuchtigkeit
    00:00 -1°C° 0.1 mm 5 m/S 732 mmHg 92%
    01:00 0°C° 0.1 mm 5 m/S 732 mmHg 93%
    02:00 0°C° 0.1 mm 4 m/S 731 mmHg 94%
    03:00 0°C° 0.1 mm 4 m/S 731 mmHg 94%
    04:00 0°C° 0.1 mm 4 m/S 730 mmHg 94%
    05:00 -1°C° 0.1 mm 4 m/S 730 mmHg 94%
    06:00 -1°C° 0.1 mm 4 m/S 730 mmHg 94%
    07:00 -1°C° 0.1 mm 4 m/S 730 mmHg 94%
    08:00 -1°C° 0.1 mm 4 m/S 730 mmHg 94%
    09:00 -1°C° 0.1 mm 4 m/S 730 mmHg 94%
    10:00 0°C° 0.1 mm 4 m/S 730 mmHg 94%
    11:00 0°C° 0.1 mm 4 m/S 730 mmHg 94%
    12:00 0°C° 0.1 mm 4 m/S 729 mmHg 93%
    13:00 0°C° 0.1 mm 4 m/S 729 mmHg 93%
    14:00 0°C° 0.1 mm 4 m/S 729 mmHg 93%
    15:00 0°C° 0.2 mm 4 m/S 728 mmHg 92%
    16:00 0°C° 0.2 mm 5 m/S 728 mmHg 91%
    17:00 0°C° 0.2 mm 5 m/S 728 mmHg 90%
    18:00 0°C° 0.4 mm 5 m/S 728 mmHg 90%
    19:00 -1°C° 0.4 mm 5 m/S 727 mmHg 89%
    20:00 -1°C° 0.4 mm 5 m/S 727 mmHg 88%
    21:00 -2°C° 0.1 mm 5 m/S 727 mmHg 87%
    22:00 -4°C° 0.1 mm 4 m/S 727 mmHg 85%
    23:00 -5°C° 0.1 mm 4 m/S 727 mmHg 84%

    übermorgen, 21 Februar, Donnerstag

    Zeit Temperatur Niederschläge Wind Luftdruck Luftfeuchtigkeit
    00:00 -6°C° 0.2 mm 5 m/S 728 mmHg 84%
    01:00 -6°C° 0.2 mm 5 m/S 728 mmHg 84%
    02:00 -6°C° 0.2 mm 6 m/S 729 mmHg 84%
    03:00 -6°C° 0.2 mm 6 m/S 729 mmHg 84%
    04:00 -8°C° 0.2 mm 6 m/S 729 mmHg 84%
    05:00 -8°C° 0.2 mm 6 m/S 729 mmHg 84%
    06:00 -8°C° 0.2 mm 6 m/S 730 mmHg 84%
    07:00 -8°C° 0.2 mm 6 m/S 730 mmHg 83%
    08:00 -9°C° 0.2 mm 6 m/S 731 mmHg 82%
    09:00 -9°C° 0.1 mm 6 m/S 732 mmHg 81%
    10:00 -8°C° 0.1 mm 6 m/S 732 mmHg 80%
    11:00 -8°C° 0.1 mm 7 m/S 733 mmHg 79%
    12:00 -8°C° 0.1 mm 7 m/S 734 mmHg 78%
    13:00 -8°C° 0.1 mm 6 m/S 734 mmHg 77%
    14:00 -9°C° 0.1 mm 6 m/S 735 mmHg 76%
    15:00 -9°C° 0.1 mm 6 m/S 736 mmHg 76%
    16:00 -10°C° 0.1 mm 6 m/S 737 mmHg 77%
    17:00 -11°C° 0.1 mm 5 m/S 737 mmHg 77%
    18:00 -12°C° 0 mm 5 m/S 738 mmHg 77%
    19:00 -13°C° 0 mm 5 m/S 739 mmHg 78%
    20:00 -13°C° 0 mm 5 m/S 739 mmHg 78%
    21:00 -14°C° 0 mm 5 m/S 740 mmHg 78%
    22:00 -14°C° 0 mm 4 m/S 740 mmHg 79%
    23:00 -14°C° 0 mm 4 m/S 741 mmHg 79%

    22 Februar, Freitag

    Zeit Temperatur Niederschläge Wind Luftdruck Luftfeuchtigkeit
    00:00 -14°C° 0 mm 4 m/S 741 mmHg 80%
    01:00 -15°C° 0 mm 4 m/S 742 mmHg 80%
    02:00 -15°C° 0 mm 4 m/S 743 mmHg 80%
    03:00 -15°C° 0 mm 4 m/S 743 mmHg 80%
    04:00 -16°C° 0 mm 4 m/S 743 mmHg 80%
    05:00 -16°C° 0 mm 4 m/S 744 mmHg 80%
    06:00 -17°C° 0 mm 5 m/S 744 mmHg 79%
    07:00 -17°C° 0 mm 5 m/S 745 mmHg 79%
    08:00 -17°C° 0 mm 5 m/S 745 mmHg 78%
    09:00 -16°C° 0 mm 6 m/S 746 mmHg 74%
    10:00 -15°C° 0 mm 6 m/S 746 mmHg 71%
    11:00 -14°C° 0 mm 7 m/S 746 mmHg 67%
    12:00 -13°C° 0 mm 7 m/S 746 mmHg 66%
    13:00 -13°C° 0 mm 7 m/S 746 mmHg 65%
    14:00 -12°C° 0 mm 7 m/S 746 mmHg 64%
    15:00 -12°C° 0 mm 6 m/S 747 mmHg 67%
    16:00 -13°C° 0 mm 5 m/S 747 mmHg 69%
    17:00 -13°C° 0 mm 5 m/S 748 mmHg 72%
    18:00 -14°C° 0 mm 5 m/S 748 mmHg 74%
    19:00 -14°C° 0 mm 5 m/S 749 mmHg 76%
    20:00 -14°C° 0 mm 5 m/S 749 mmHg 78%
    21:00 -15°C° 0 mm 4 m/S 750 mmHg 80%
    22:00 -15°C° 0 mm 4 m/S 750 mmHg 81%
    23:00 -15°C° 0 mm 4 m/S 750 mmHg 82%

    23 Februar, Samstag

    Zeit Temperatur Niederschläge Wind Luftdruck Luftfeuchtigkeit
    00:00 -16°C° 0 mm 4 m/S 751 mmHg 83%
    01:00 -16°C° 0 mm 4 m/S 751 mmHg 84%
    02:00 -16°C° 0 mm 4 m/S 752 mmHg 84%
    03:00 -15°C° 0 mm 3 m/S 752 mmHg 86%
    04:00 -16°C° 0 mm 3 m/S 752 mmHg 87%
    05:00 -16°C° 0 mm 3 m/S 752 mmHg 88%
    06:00 -16°C° 0 mm 3 m/S 752 mmHg 88%
    07:00 -16°C° 0 mm 3 m/S 753 mmHg 89%
    08:00 -17°C° 0 mm 3 m/S 753 mmHg 90%
    09:00 -16°C° 0 mm 3 m/S 753 mmHg 87%
    10:00 -14°C° 0 mm 3 m/S 753 mmHg 83%
    11:00 -12°C° 0 mm 2 m/S 753 mmHg 80%
    12:00 -12°C° 0 mm 2 m/S 753 mmHg 77%
    13:00 -10°C° 0 mm 2 m/S 752 mmHg 74%
    14:00 -9°C° 0 mm 2 m/S 752 mmHg 71%
    15:00 -9°C° 0 mm 2 m/S 752 mmHg 74%
    16:00 -10°C° 0 mm 2 m/S 752 mmHg 78%
    17:00 -9°C° 0 mm 1 m/S 752 mmHg 81%
    18:00 -9°C° 0 mm 1 m/S 752 mmHg 83%
    19:00 -9°C° 0 mm 1 m/S 752 mmHg 84%
    20:00 -10°C° 0 mm 1 m/S 752 mmHg 86%
    21:00 -10°C° 0 mm 1 m/S 752 mmHg 86%
    22:00 -9°C° 0 mm 1 m/S 752 mmHg 85%
    23:00 -9°C° 0 mm 0 m/S 752 mmHg 85%

    24 Februar, Sonntag

    Zeit Temperatur Niederschläge Wind Luftdruck Luftfeuchtigkeit
    00:00 -9°C° 0 mm 0 m/S 752 mmHg 85%
    01:00 -9°C° 0 mm 0 m/S 752 mmHg 85%
    02:00 -9°C° 0 mm 0 m/S 752 mmHg 85%
    03:00 -10°C° 0 mm 0 m/S 752 mmHg 85%
    04:00 -10°C° 0 mm 0 m/S 752 mmHg 86%
    05:00 -10°C° 0 mm 0 m/S 752 mmHg 86%
    06:00 -9°C° 0 mm 0 m/S 752 mmHg 87%
    07:00 -9°C° 0 mm 0 m/S 753 mmHg 87%
    08:00 -8°C° 0 mm 0 m/S 753 mmHg 87%
    09:00 -7°C° 0 mm 0 m/S 753 mmHg 86%
    10:00 -6°C° 0 mm 1 m/S 754 mmHg 84%
    11:00 -4°C° 0 mm 1 m/S 754 mmHg 83%
    12:00 -3°C° 0 mm 1 m/S 754 mmHg 83%
    13:00 -3°C° 0 mm 1 m/S 754 mmHg 83%
    14:00 -2°C° 0 mm 1 m/S 754 mmHg 83%
    15:00 -2°C° 0 mm 1 m/S 754 mmHg 85%
    16:00 -3°C° 0 mm 1 m/S 754 mmHg 87%
    17:00 -3°C° 0 mm 1 m/S 754 mmHg 89%
    18:00 -3°C° 0 mm 1 m/S 754 mmHg 90%
    19:00 -3°C° 0 mm 1 m/S 754 mmHg 91%
    20:00 -3°C° 0 mm 1 m/S 754 mmHg 93%
    21:00 -3°C° 0 mm 1 m/S 754 mmHg 93%
    22:00 -3°C° 0 mm 1 m/S 753 mmHg 93%
    23:00 -3°C° 0 mm 1 m/S 753 mmHg 94%
    Mehr zeigen